Overview Statistics Trail Chart Weather Telemetry Raw packets
 

This is the latest recevied weather packets stored in our database for station/object DH9SB-6. If no packets are shown the sender has not sent any weather packets the latest 10 day(s).

<< 1 2 3 4 5 >>
Time Temp. Humidity Pressure Rain* Wind** Luminosity Snow
1788191288 21.67° C 60% - 0 mm - - -
1788190665 21.67° C 57% - 0 mm - - -
1788190088 22.78° C 50% - 0 mm - - -
1788189465 22.78° C 47% - 0 mm - - -
1788188887 23.33° C 45% - 0 mm - - -
1788188265 23.89° C 43% - 0 mm - - -
1788187687 25.56° C 42% - 0 mm - - -
1788187352 25.56° C 42% - 0 mm - - -
1788186824 25.56° C 41% - 0 mm - - -
1788186153 25.56° C 41% - 0 mm - - -
1788185579 25° C 41% - 0 mm - - -
1788185289 25° C 41% - 0 mm - - -
1788184664 25° C 41% - 0 mm - - -
1788184089 25.56° C 41% - 0 mm - - -
1788183751 25° C 41% - 0 mm - - -
1788183176 24.44° C 42% - 0 mm - - -
1788182552 24.44° C 44% - 0 mm - - -
1788181976 24.44° C 43% - 0 mm - - -
1788181352 23.89° C 43% - 0 mm - - -
1788180776 24.44° C 43% - 0 mm - - -
1788179864 24.44° C 46% - 0 mm - - -
1788179288 23.89° C 51% - 0 mm - - -
1788178666 22.78° C 52% - 0 mm - - -
1788178089 22.22° C 54% - 0 mm - - -
1788177464 22.78° C 52% - 0 mm - - -

* Rain latest hour (hover to see other rain measurements)
** Current wind speed in m/s (hover to see current wind gust speed)